Time,TemperatureF,DewpointF,PressureIn,WindDirection,WindDirectionDegrees,WindSpeedMPH,WindSpeedGustMPH,Humidity,HourlyPrecipIn,Conditions,Clouds,dailyrainin,SoftwareType,DateUTC
2013-03-16 00:12:00,56.3,40.0,30.02,WSW,257,2.0,5.0,54,0.00,,,0.00,weatherlink.com 1.10,2013-03-16 04:12:00,
2013-03-16 00:27:00,56.3,40.0,30.02,West,281,2.0,7.0,55,0.00,,,0.00,weatherlink.com 1.10,2013-03-16 04:27:00,
2013-03-16 00:42:00,56.1,40.0,30.01,WNW,290,1.0,7.0,55,0.00,,,0.00,weatherlink.com 1.10,2013-03-16 04:42:00,
2013-03-16 00:57:00,55.8,40.0,30.00,NW,321,2.0,5.0,56,0.00,,,0.00,weatherlink.com 1.10,2013-03-16 04:57:00,
2013-03-16 01:12:00,55.8,40.0,30.01,WNW,293,1.0,6.0,56,0.00,,,0.00,weatherlink.com 1.10,2013-03-16 05:12:00,
2013-03-16 01:28:00,55.2,40.0,30.01,West,276,0.0,3.0,57,0.00,,,0.00,weatherlink.com 1.10,2013-03-16 05:28:00,
2013-03-16 01:43:00,54.7,40.0,30.00,West,273,1.0,4.0,58,0.00,,,0.00,weatherlink.com 1.10,2013-03-16 05:43:00,
2013-03-16 01:58:00,52.7,40.0,30.00,WNW,295,0.0,2.0,62,0.00,,,0.00,weatherlink.com 1.10,2013-03-16 05:58:00,
2013-03-16 02:13:00,51.6,40.0,30.00,WSW,246,0.0,1.0,65,0.00,,,0.00,weatherlink.com 1.10,2013-03-16 06:13:00,
2013-03-16 02:28:00,49.2,40.0,30.00,WSW,246,0.0,1.0,70,0.00,,,0.00,weatherlink.com 1.10,2013-03-16 06:28:00,
2013-03-16 02:43:00,47.7,40.0,30.00,WSW,245,0.0,0.0,74,0.00,,,0.00,weatherlink.com 1.10,2013-03-16 06:43:00,
2013-03-16 02:58:00,46.7,40.0,30.00,WSW,246,0.0,1.0,76,0.00,,,0.00,weatherlink.com 1.10,2013-03-16 06:58:00,
2013-03-16 03:13:00,46.1,40.0,30.00,WSW,246,0.0,0.0,78,0.00,,,0.00,weatherlink.com 1.10,2013-03-16 07:13:00,
2013-03-16 03:28:00,45.6,39.0,30.00,WSW,246,0.0,1.0,79,0.00,,,0.00,weatherlink.com 1.10,2013-03-16 07:28:00,
2013-03-16 03:43:00,45.0,39.0,30.00,WSW,248,0.0,0.0,80,0.00,,,0.00,weatherlink.com 1.10,2013-03-16 07:43:00,
2013-03-16 03:58:00,45.0,40.0,29.99,WSW,248,0.0,1.0,81,0.00,,,0.00,weatherlink.com 1.10,2013-03-16 07:58:00,
2013-03-16 04:13:00,44.6,39.0,29.99,West,263,0.0,2.0,82,0.00,,,0.00,weatherlink.com 1.10,2013-03-16 08:13:00,
2013-03-16 04:28:00,44.7,40.0,29.98,NNE,20,2.0,2.0,83,0.00,,,0.00,weatherlink.com 1.10,2013-03-16 08:28:00,
2013-03-16 04:43:00,45.4,40.0,29.98,ENE,71,0.0,1.0,82,0.00,,,0.00,weatherlink.com 1.10,2013-03-16 08:43:00,
2013-03-16 04:58:00,52.3,42.0,29.97,ENE,77,1.0,7.0,68,0.00,,,0.00,weatherlink.com 1.10,2013-03-16 08:58:00,
2013-03-16 05:13:00,56.7,41.0,29.97,WSW,239,3.0,10.0,56,0.00,,,0.00,weatherlink.com 1.10,2013-03-16 09:13:00,
2013-03-16 05:28:00,58.2,40.0,29.97,SSW,194,0.0,11.0,52,0.00,,,0.00,weatherlink.com 1.10,2013-03-16 09:28:00,
2013-03-16 05:43:00,59.1,40.0,29.97,WNW,284,3.0,12.0,50,0.00,,,0.00,weatherlink.com 1.10,2013-03-16 09:43:00,
2013-03-16 05:58:00,59.0,40.0,29.97,NNE,18,6.0,9.0,50,0.00,,,0.00,weatherlink.com 1.10,2013-03-16 09:58:00,
2013-03-16 06:13:00,58.6,40.0,29.98,SE,145,1.0,4.0,50,0.00,,,0.00,weatherlink.com 1.10,2013-03-16 10:13:00,
2013-03-16 06:28:00,58.4,40.0,29.99,WNW,283,0.0,7.0,50,0.00,,,0.00,weatherlink.com 1.10,2013-03-16 10:28:00,
2013-03-16 06:43:00,58.1,39.0,29.99,West,276,2.0,2.0,50,0.00,,,0.00,weatherlink.com 1.10,2013-03-16 10:43:00,
2013-03-16 06:58:00,57.9,40.0,29.99,SSW,200,0.0,4.0,51,0.00,,,0.00,weatherlink.com 1.10,2013-03-16 10:58:00,
2013-03-16 07:13:00,57.3,40.0,29.99,WNW,293,0.0,3.0,52,0.00,,,0.00,weatherlink.com 1.10,2013-03-16 11:13:00,
2013-03-16 07:28:00,55.7,40.0,29.99,SW,231,0.0,1.0,55,0.00,,,0.00,weatherlink.com 1.10,2013-03-16 11:28:00,
2013-03-16 07:43:00,55.5,40.0,29.99,SSW,193,1.0,2.0,56,0.00,,,0.00,weatherlink.com 1.10,2013-03-16 11:43:00,
2013-03-16 07:58:00,57.1,39.0,29.99,SSW,211,0.0,3.0,52,0.00,,,0.00,weatherlink.com 1.10,2013-03-16 11:58:00,
2013-03-16 08:13:00,57.9,40.0,29.98,WSW,256,0.0,6.0,51,0.00,,,0.00,weatherlink.com 1.10,2013-03-16 12:13:00,
2013-03-16 08:29:00,59.0,40.0,29.99,NNW,338,3.0,8.0,49,0.00,,,0.00,weatherlink.com 1.10,2013-03-16 12:29:00,
2013-03-16 08:44:00,59.8,40.0,29.98,SSW,201,0.0,9.0,48,0.00,,,0.00,weatherlink.com 1.10,2013-03-16 12:44:00,
2013-03-16 08:58:00,59.7,40.0,29.98,NNE,32,2.0,4.0,48,0.00,,,0.00,weatherlink.com 1.10,2013-03-16 12:58:00,
2013-03-16 09:14:00,60.2,41.0,29.99,West,263,3.0,8.0,49,0.00,,,0.00,weatherlink.com 1.10,2013-03-16 13:14:00,
2013-03-16 09:29:00,61.0,41.0,29.99,SW,225,5.0,10.0,48,0.00,,,0.00,weatherlink.com 1.10,2013-03-16 13:29:00,
2013-03-16 09:44:00,61.9,42.0,29.99,SW,215,0.0,10.0,49,0.00,,,0.00,weatherlink.com 1.10,2013-03-16 13:44:00,
2013-03-16 09:59:00,62.6,42.0,29.99,WNW,283,5.0,11.0,47,0.00,,,0.00,weatherlink.com 1.10,2013-03-16 13:59:00,
2013-03-16 10:14:00,64.1,43.0,29.98,West,264,2.0,8.0,46,0.00,,,0.00,weatherlink.com 1.10,2013-03-16 14:14:00,
2013-03-16 10:29:00,63.7,42.0,29.98,WSW,246,1.0,11.0,46,0.00,,,0.00,weatherlink.com 1.10,2013-03-16 14:29:00,
2013-03-16 10:44:00,64.4,43.0,29.98,West,278,5.0,14.0,46,0.00,,,0.00,weatherlink.com 1.10,2013-03-16 14:44:00,
2013-03-16 10:59:00,65.7,44.0,29.98,WSW,250,11.0,12.0,45,0.00,,,0.00,weatherlink.com 1.10,2013-03-16 14:59:00,
2013-03-16 11:15:00,66.5,44.0,29.97,SW,232,6.0,11.0,44,0.00,,,0.00,weatherlink.com 1.10,2013-03-16 15:15:00,
2013-03-16 11:29:00,66.8,45.0,29.97,SSW,210,1.0,9.0,45,0.00,,,0.00,weatherlink.com 1.10,2013-03-16 15:29:00,
2013-03-16 11:44:00,66.7,44.0,29.97,West,281,2.0,15.0,44,0.00,,,0.00,weatherlink.com 1.10,2013-03-16 15:44:00,
2013-03-16 11:59:00,67.4,44.0,29.96,NW,314,3.0,14.0,43,0.00,,,0.00,weatherlink.com 1.10,2013-03-16 15:59:00,
2013-03-16 12:14:00,67.2,44.0,29.96,South,184,7.0,16.0,43,0.00,,,0.00,weatherlink.com 1.10,2013-03-16 16:14:00,
2013-03-16 12:29:00,69.0,44.0,29.95,WSW,255,5.0,12.0,40,0.00,,,0.00,weatherlink.com 1.10,2013-03-16 16:29:00,
2013-03-16 12:44:00,69.4,45.0,29.95,WSW,253,8.0,14.0,41,0.00,,,0.00,weatherlink.com 1.10,2013-03-16 16:44:00,
2013-03-16 12:59:00,69.8,43.0,29.95,WSW,252,5.0,16.0,38,0.00,,,0.00,weatherlink.com 1.10,2013-03-16 16:59:00,
2013-03-16 13:14:00,71.2,44.0,29.94,NW,318,8.0,18.0,38,0.00,,,0.00,weatherlink.com 1.10,2013-03-16 17:14:00,
2013-03-16 13:29:00,71.7,43.0,29.93,West,259,2.0,11.0,36,0.00,,,0.00,weatherlink.com 1.10,2013-03-16 17:29:00,
2013-03-16 13:44:00,71.5,42.0,29.93,NNW,331,8.0,19.0,35,0.00,,,0.00,weatherlink.com 1.10,2013-03-16 17:44:00,
2013-03-16 13:59:00,72.7,42.0,29.92,WSW,257,4.0,13.0,33,0.00,,,0.00,weatherlink.com 1.10,2013-03-16 17:59:00,
2013-03-16 14:14:00,72.9,42.0,29.92,South,184,1.0,13.0,33,0.00,,,0.00,weatherlink.com 1.10,2013-03-16 18:14:00,
2013-03-16 14:29:00,72.8,42.0,29.92,WSW,255,3.0,15.0,33,0.00,,,0.00,weatherlink.com 1.10,2013-03-16 18:29:00,
2013-03-16 14:44:00,73.3,42.0,29.91,WNW,290,4.0,13.0,32,0.00,,,0.00,weatherlink.com 1.10,2013-03-16 18:44:00,
2013-03-16 14:59:00,74.0,42.0,29.90,West,280,3.0,13.0,32,0.00,,,0.00,weatherlink.com 1.10,2013-03-16 18:59:00,
2013-03-16 15:15:00,74.2,42.0,29.89,WNW,294,6.0,13.0,31,0.00,,,0.00,weatherlink.com 1.10,2013-03-16 19:15:00,
2013-03-16 15:30:00,75.5,44.0,29.89,NNW,328,4.0,10.0,32,0.00,,,0.00,weatherlink.com 1.10,2013-03-16 19:30:00,
2013-03-16 15:45:00,75.1,42.0,29.89,NNW,330,7.0,16.0,30,0.00,,,0.00,weatherlink.com 1.10,2013-03-16 19:45:00,
2013-03-16 16:00:00,75.0,41.0,29.88,NNW,334,8.0,13.0,30,0.00,,,0.00,weatherlink.com 1.10,2013-03-16 20:00:00,
2013-03-16 16:15:00,76.1,42.0,29.88,West,274,2.0,11.0,30,0.00,,,0.00,weatherlink.com 1.10,2013-03-16 20:15:00,
2013-03-16 16:30:00,75.8,41.0,29.88,NW,316,3.0,15.0,29,0.00,,,0.00,weatherlink.com 1.10,2013-03-16 20:30:00,
2013-03-16 16:45:00,75.9,40.0,29.89,WSW,244,3.0,18.0,28,0.00,,,0.00,weatherlink.com 1.10,2013-03-16 20:45:00,
2013-03-16 17:15:00,75.7,42.0,29.89,West,259,2.0,8.0,30,0.00,,,0.00,weatherlink.com 1.10,2013-03-16 21:15:00,
2013-03-16 17:30:00,74.8,41.0,29.89,WNW,288,2.0,14.0,30,0.00,,,0.00,weatherlink.com 1.10,2013-03-16 21:30:00,
2013-03-16 17:45:00,74.3,42.0,29.89,West,281,7.0,16.0,31,0.00,,,0.00,weatherlink.com 1.10,2013-03-16 21:45:00,
2013-03-16 18:00:00,73.6,43.0,29.89,NW,314,1.0,16.0,33,0.00,,,0.00,weatherlink.com 1.10,2013-03-16 22:00:00,
2013-03-16 18:15:00,72.9,43.0,29.89,WNW,297,5.0,11.0,34,0.00,,,0.00,weatherlink.com 1.10,2013-03-16 22:15:00,
2013-03-16 18:30:00,72.2,42.0,29.90,North,359,3.0,8.0,34,0.00,,,0.00,weatherlink.com 1.10,2013-03-16 22:30:00,
2013-03-16 18:45:00,71.3,42.0,29.91,West,276,2.0,12.0,35,0.00,,,0.00,weatherlink.com 1.10,2013-03-16 22:45:00,
2013-03-16 19:00:00,70.6,43.0,29.91,NW,316,5.0,11.0,37,0.00,,,0.00,weatherlink.com 1.10,2013-03-16 23:00:00,
2013-03-16 19:15:00,69.9,43.0,29.92,NW,304,2.0,8.0,38,0.00,,,0.00,weatherlink.com 1.10,2013-03-16 23:15:00,
2013-03-16 19:30:00,69.0,44.0,29.93,WNW,293,1.0,7.0,40,0.00,,,0.00,weatherlink.com 1.10,2013-03-16 23:30:00,
2013-03-16 19:45:00,68.4,44.0,29.93,West,279,2.0,5.0,41,0.00,,,0.00,weatherlink.com 1.10,2013-03-16 23:45:00,
2013-03-16 20:00:00,67.9,44.0,29.94,WNW,289,2.0,5.0,42,0.00,,,0.00,weatherlink.com 1.10,2013-03-17 00:00:00,
2013-03-16 20:15:00,67.2,44.0,29.95,WNW,295,2.0,4.0,43,0.00,,,0.00,weatherlink.com 1.10,2013-03-17 00:15:00,
2013-03-16 20:30:00,66.8,44.0,29.95,West,276,2.0,8.0,44,0.00,,,0.00,weatherlink.com 1.10,2013-03-17 00:30:00,
2013-03-16 20:45:00,65.9,44.0,29.96,WNW,288,2.0,3.0,45,0.00,,,0.00,weatherlink.com 1.10,2013-03-17 00:45:00,
2013-03-16 21:00:00,65.6,44.0,29.97,West,263,0.0,4.0,46,0.00,,,0.00,weatherlink.com 1.10,2013-03-17 01:00:00,
2013-03-16 21:16:00,64.9,43.0,29.97,NW,324,4.0,4.0,46,0.00,,,0.00,weatherlink.com 1.10,2013-03-17 01:16:00,
2013-03-16 21:30:00,64.4,44.0,29.98,WNW,302,0.0,3.0,47,0.00,,,0.00,weatherlink.com 1.10,2013-03-17 01:30:00,
2013-03-16 21:45:00,63.3,44.0,29.99,West,275,1.0,2.0,49,0.00,,,0.00,weatherlink.com 1.10,2013-03-17 01:45:00,
2013-03-16 22:00:00,62.4,43.0,29.99,WNW,297,1.0,2.0,50,0.00,,,0.00,weatherlink.com 1.10,2013-03-17 02:00:00,
2013-03-16 22:15:00,62.2,43.0,29.99,WNW,287,0.0,3.0,50,0.00,,,0.00,weatherlink.com 1.10,2013-03-17 02:15:00,
2013-03-16 22:30:00,61.1,43.0,30.00,WNW,285,1.0,3.0,52,0.00,,,0.00,weatherlink.com 1.10,2013-03-17 02:30:00,
2013-03-16 22:45:00,60.2,43.0,30.01,West,271,0.0,2.0,54,0.00,,,0.00,weatherlink.com 1.10,2013-03-17 02:45:00,
2013-03-16 23:00:00,60.1,43.0,30.01,West,273,0.0,3.0,53,0.00,,,0.00,weatherlink.com 1.10,2013-03-17 03:00:00,
2013-03-16 23:15:00,59.6,43.0,30.01,WNW,290,0.0,2.0,54,0.00,,,0.00,weatherlink.com 1.10,2013-03-17 03:15:00,
2013-03-16 23:30:00,58.4,43.0,30.02,West,267,0.0,1.0,57,0.00,,,0.00,weatherlink.com 1.10,2013-03-17 03:30:00,
2013-03-16 23:45:00,56.3,43.0,30.01,WNW,298,0.0,1.0,61,0.00,,,0.00,weatherlink.com 1.10,2013-03-17 03:45:00,